星链-36099(STARLINK-36099)

导读

STARLINK-36099是美国太空探索技术公司(SpaceX)于2025年12月1日发射的星链卫星,隶属于Starlink全球低轨卫星互联网项目。该卫星运行在近地轨道,轨道倾角约53.16度,近地点约474.6公里,远地点约475.9公里,周期约94.1分钟。它旨在为全球尤其是偏远区域提供高速低延迟互联网服务,助力缩小数字鸿沟,同时可为军事、航空等领域提供通信支持。

基本信息
目录编号:
66797
目录名称:
STARLINK-36099
国际标识:
2025-278G
轨道中心:
EARTH
卫星名称:
星链-36099
卫星全名:
星链-36099(STARLINK-36099)
卫星状态:
在轨 (已飞行284 天)
发射日期:
2025-12-01 UTC
国别 :
美国 (US)
星等 :
--
该卫星已列入 空间交会检测服务 Space Conjunction Data Service (SCDS) ,当前飞行风险评估等级: 高风险
轨道信息
数据来源 国际轨道数据
星历时间: 2026-09-11T10:09:59+0800
12小时前
查看轨道信息
半长轴: 6861.13km
偏心率: 0.0000652
轨道倾角: 43.002°
近地点辐角 271.463°
升交点赤经 147.333°
平近点角 88.615°
近地点: 482.545km
远地点: 483.441km
周期: 94.266分钟
每日圈数: 15.27599
详细信息
固有亮度:
5
最大亮度:
2.5
卫星平台:
Starlink V1.0
覆盖范围:
全球
运营商:
太空探索技术公司
运营商所在国:
美国
制造商(研发单位):
太空探索技术公司
制造商所在国:
美国
使用方式:
暂无
卫星简介
Starlink 计划是 SpaceX 推出的全球卫星互联网项目,通过发射低轨道卫星,为全球尤其是偏远地区提供高速、低延迟的互联网服务。自 2019 年起,Starlink 已部署数千颗卫星,旨在缩小全球数字鸿沟,推动互联网普及。该项目还为军事、航空等行业提供通信支持,带来广泛经济效益。
2D轨道图
3D轨道图
轨道高度分析图
轨道倾角分析图
轨道综合分析图
查看轨道综合分析图
交会数据列表
事件ID 空间交会对象 最接近时刻(TCA) 交会距离 交会风险概率(CRP) 交会风险指数(CRI) 操作
CDM_260913-080205-934206-679722
2026-09-13T
08:02:01+0000
0.147 km
中距离
8.000972E-4 高风险 0.93
CDM_260913-115406-274406-679721
2026-09-13T
11:54:14+0000
0.219 km
中距离
4.550303E-4 高风险 0.88
CDM_260912-103705-840806-679722
2026-09-12T
10:37:48+0000
0.533 km
远距离
9.139078E-5 中风险 0.74
CDM_260912-210505-629406-679721
2026-09-12T
21:05:37+0000
0.703 km
远距离
5.419503E-5 中风险 0.7
CDM_260913-184905-692306-679721
2026-09-13T
18:49:21+0000
0.645 km
远距离
4.52389E-5 中风险 0.68
CDM_260913-102006-274406-679721
2026-09-13T
10:20:05+0000
0.717 km
远距离
3.235332E-5 中风险 0.65
CDM_260913-102505-629406-679721
2026-09-13T
10:25:55+0000
1.020 km
极远距离
1.589241E-5 中风险 0.59
CDM_260912-174105-840806-679722
2026-09-12T
17:41:29+0000
0.958 km
远距离
1.479388E-5 中风险 0.58
CDM_260913-163905-934206-679722
2026-09-13T
16:39:51+0000
1.081 km
极远距离
1.1199E-5 中风险 0.56
CDM_260913-145305-692306-679721
2026-09-13T
14:53:59+0000
1.023 km
极远距离
9.871566E-6 低风险 0.55
与全量物体交会距离演化趋势
与全量物体交会风险概率演化趋势